Wind_Speed
24 24 22 21 21 20 20 20 19 18 17 17 16 17 17 16 16 17 16 16 14 13 12 12 12 12 13 13 14 13 13 13 14 14 14 14 13 13 12 11 10 9 9 8
26 24 22 22 22 21 22 21 19 19 18 19 19 20 18 16 16 16 17 16 14 15 15 14 13 14 15 14 13 13 14 14 14 14 14 14 14 13 12 10 9 8 8 7
26 23 23 24 23 23 23 21 21 20 20 21 21 22 20 18 17 17 17 18 16 15 15 15 15 15 15 15 14 14 14 14 15 15 14 14 14 13 12 11 9 7 7 7
26 25 25 24 24 24 22 20 21 21 21 21 21 22 21 20 19 18 19 18 16 15 15 15 15 15 15 15 15 15 15 14 14 15 14 14 14 13 12 11 9 7 7 7
26 26 26 25 23 24 23 22 23 23 24 23 23 24 22 21 20 19 19 18 16 15 15 15 16 16 16 17 16 16 15 15 15 15 14 14 14 13 12 10 8 8 7 8
25 25 26 25 24 25 24 25 25 25 25 25 22 23 22 20 20 19 20 19 17 17 16 15 16 16 17 17 16 16 15 15 15 14 14 14 14 13 12 10 9 8 8 8
25 25 25 25 26 25 25 25 26 26 27 26 23 24 21 19 19 19 19 19 18 18 17 17 18 16 17 17 17 17 16 16 16 15 15 14 14 13 12 10 10 9 9 9
25 24 24 25 26 24 24 25 27 26 26 25 25 25 22 20 19 19 18 18 18 18 18 18 18 17 17 17 18 17 16 16 16 16 16 15 14 13 12 10 10 10 10 10
25 23 23 25 24 24 24 25 25 25 25 25 25 23 21 18 17 17 18 19 18 18 18 18 19 18 17 18 18 17 17 17 16 16 16 16 14 13 12 11 11 11 11 11
25 24 23 23 23 24 24 24 25 27 27 27 26 23 21 20 19 17 18 19 18 17 17 17 18 18 18 18 18 17 17 17 16 16 17 16 15 13 12 12 12 11 11 12
26 25 24 25 25 24 24 26 26 27 28 27 26 24 21 20 21 19 18 18 17 16 16 17 18 17 18 18 18 18 18 17 17 16 17 16 16 15 14 13 13 12 12 11
26 26 26 26 26 27 26 27 27 29 28 28 28 25 22 21 22 21 20 18 17 17 18 19 18 17 17 18 18 18 18 17 17 17 17 17 17 15 14 13 13 13 12 11
25 27 27 27 27 28 28 28 28 30 30 30 29 25 23 22 23 22 21 19 17 17 18 18 17 16 17 17 18 18 18 17 18 18 17 16 14 14 14 13 13 13 13 12
26 27 28 28 27 28 28 29 29 30 31 30 28 26 24 23 22 22 21 20 19 18 18 17 17 17 18 18 17 17 17 17 18 17 16 16 16 15 14 14 14 13 13 13
28 28 28 27 28 29 29 29 29 30 30 30 28 28 26 25 23 23 23 22 21 19 18 17 16 17 17 16 16 17 17 17 18 17 16 16 16 15 15 14 14 14 14 14
30 29 28 28 28 29 29 29 29 30 30 30 28 28 26 25 25 25 23 22 22 22 21 18 16 16 15 16 16 16 16 17 17 16 16 16 16 15 14 14 13 13 14 14
30 30 30 29 28 29 29 29 30 30 30 30 29 28 27 27 26 27 26 24 23 23 22 19 18 16 16 15 15 15 16 16 16 16 16 15 15 14 14 13 13 14 14 14
30 30 30 28 28 30 29 29 28 28 29 31 30 29 29 28 28 28 28 25 23 22 21 20 18 18 18 16 15 15 16 16 16 16 15 14 13 13 13 13 14 15 14 14
28 28 28 28 28 28 28 29 29 28 28 30 30 30 30 29 28 28 27 26 24 22 21 19 18 18 18 17 17 17 16 16 16 16 15 15 14 14 14 14 15 14 15 15
27 28 27 27 27 27 27 28 28 28 29 29 29 29 29 28 28 26 25 24 23 23 22 20 18 17 16 17 18 17 17 16 16 16 16 15 15 15 15 15 15 15 16 17
25 27 26 26 26 26 25 25 26 27 28 28 27 27 27 27 27 26 25 24 24 24 24 22 21 19 19 18 18 17 17 17 17 17 17 17 17 16 16 16 15 16 16 17
24 25 25 25 25 25 24 23 24 25 25 27 26 26 26 26 27 27 26 25 25 25 25 23 21 20 19 19 19 18 18 18 18 18 18 18 17 17 17 17 17 17 18 18
24 24 25 25 25 24 23 23 23 24 25 26 26 26 25 26 27 25 25 24 23 24 24 23 21 20 20 19 19 19 20 19 19 19 18 18 18 18 19 19 19 19 19 19
23 23 23 24 24 24 23 24 24 23 23 24 26 25 25 25 26 25 24 23 22 23 23 23 22 21 21 21 20 20 20 20 20 20 20 19 18 18 18 19 20 20 20 20
21 23 23 23 24 23 23 23 24 22 22 23 24 24 25 25 25 26 25 24 24 24 23 23 23 22 22 21 21 21 21 21 21 21 21 21 20 19 19 19 20 20 20 21
19 21 22 22 22 23 23 22 23 22 21 21 21 22 22 23 24 25 26 25 24 24 23 23 23 22 22 21 21 21 21 22 21 21 22 21 20 20 20 21 21 20 20 21
Wind_Direction
233 232 231 233 237 238 239 240 240 242 243 246 251 256 259 261 264 271 275 280 280 285 292 291 293 303 302 301 305 308 310 311 315 318 319 321 325 327 323 320 320 318 313 306
232 233 233 235 237 239 240 241 241 242 243 248 253 255 256 260 265 271 272 273 274 282 289 288 289 294 296 295 298 302 305 307 311 313 314 317 320 323 322 322 318 314 307 303
234 232 233 234 235 237 239 241 243 244 243 248 254 254 253 258 264 269 270 275 279 287 290 288 287 289 289 290 292 295 298 301 305 308 308 312 316 317 317 319 315 314 306 303
232 232 233 233 234 237 238 239 242 243 244 245 249 253 254 260 261 263 265 270 277 282 287 288 286 285 287 288 290 294 297 298 300 301 303 308 311 312 315 314 312 311 305 300
236 235 235 234 233 236 237 238 241 242 243 245 247 254 254 258 260 263 265 267 273 276 279 282 282 286 286 287 288 295 296 299 298 297 300 303 304 305 308 306 303 304 306 302
236 236 236 236 233 233 236 239 241 243 244 245 247 252 253 254 258 260 260 261 265 269 271 275 279 284 285 286 288 292 294 296 297 295 296 300 300 300 301 297 296 295 299 302
235 234 234 234 233 231 235 238 239 241 243 245 245 250 254 251 250 252 255 258 261 266 271 273 276 280 284 286 288 288 289 291 293 295 294 297 297 296 297 289 294 295 295 296
234 230 231 231 232 233 235 238 241 245 247 246 244 249 256 255 253 254 253 254 257 262 266 272 277 281 283 287 290 288 288 290 291 292 293 293 294 294 291 286 291 292 293 292
235 232 228 229 231 235 234 236 241 244 246 246 244 247 251 251 252 253 251 256 258 261 265 269 274 279 283 284 284 285 288 289 290 291 292 291 289 290 287 286 287 288 289 289
236 235 228 227 230 234 237 239 241 242 242 243 242 243 247 249 251 254 254 256 258 262 266 269 271 277 281 281 281 282 285 288 290 291 291 290 289 287 283 282 283 282 285 285
235 234 227 227 230 233 235 237 238 239 241 243 243 242 243 249 251 253 254 254 259 262 267 273 272 277 279 278 277 280 284 286 288 289 290 288 286 283 281 275 276 278 280 281
235 234 231 230 232 234 234 235 237 238 240 242 244 242 240 243 248 251 252 254 258 263 270 272 272 276 276 276 277 279 282 283 284 287 288 284 282 277 276 274 271 274 277 277
234 235 232 229 230 232 232 232 235 238 241 240 242 243 242 243 246 249 253 257 261 265 268 269 270 274 275 277 278 280 282 284 285 284 284 284 280 277 275 275 268 268 273 276
236 236 235 232 230 230 229 230 232 236 239 240 241 242 242 242 246 248 252 259 263 268 270 269 272 274 273 274 277 281 283 283 286 287 285 283 282 280 274 275 270 266 271 275
235 237 237 236 233 232 233 232 232 235 238 242 243 241 241 243 248 252 253 258 265 267 270 275 275 273 274 271 274 278 281 282 284 286 285 284 282 280 276 274 271 266 270 273
234 237 238 236 234 233 234 234 235 236 239 242 241 238 238 243 248 251 255 260 264 265 269 272 272 270 271 271 274 277 280 283 284 284 283 284 282 280 274 273 272 266 268 270
234 237 238 237 235 234 235 237 238 239 239 240 239 238 240 243 247 252 256 260 264 267 269 269 271 270 266 267 272 277 279 282 285 285 284 284 282 280 272 267 268 270 270 271
235 236 238 238 237 235 236 238 241 242 241 240 239 238 241 243 245 249 254 258 261 264 269 268 266 268 266 265 272 277 278 279 282 283 284 283 281 279 273 271 271 271 272 274
234 235 237 239 238 238 237 239 242 243 242 238 240 240 241 242 244 247 251 256 259 262 265 264 263 266 264 264 271 276 276 277 279 277 278 279 277 275 272 270 271 270 273 276
232 232 235 237 239 239 237 237 240 243 242 240 240 241 242 244 246 248 251 254 256 259 261 262 261 262 266 270 274 274 275 276 278 277 275 276 275 273 271 272 271 273 275 277
231 231 233 236 238 239 236 236 238 241 241 241 241 241 241 245 246 248 250 253 256 259 258 261 261 261 266 271 272 273 273 275 274 274 274 275 273 270 269 270 271 274 277 279
230 230 231 233 236 237 237 237 237 239 239 239 240 240 242 245 245 247 250 251 255 257 256 261 263 262 266 269 270 270 270 271 271 271 273 273 271 269 268 268 271 272 274 279
229 231 231 233 238 240 241 239 238 238 240 240 240 240 242 245 244 244 248 252 252 253 257 260 266 268 268 268 268 270 270 269 269 270 270 271 270 268 267 268 271 273 275 277
229 233 233 234 238 241 242 241 241 241 241 242 242 242 243 244 241 245 250 252 253 254 257 259 263 267 267 267 267 268 267 267 268 268 268 267 268 268 269 269 271 273 274 275
230 232 236 238 240 242 245 245 243 244 242 244 243 242 242 244 245 248 249 250 252 255 257 259 260 263 265 267 265 265 264 264 265 267 267 268 266 265 268 271 272 272 273 275
235 235 237 239 241 243 245 245 244 243 240 241 242 240 242 243 246 246 246 247 250 254 256 258 259 259 261 263 265 265 266 264 263 265 266 266 265 266 267 268 270 272 274 277
Height
5860 5863 5865 5867 5869 5871 5872 5874 5876 5878 5878 5878 5878 5879 5880 5881 5881 5882 5882 5882 5882 5883 5883 5883 5883 5882 5881 5881 5880 5879 5878 5877 5875 5873 5871 5870 5868 5866 5864 5862 5861 5859 5858 5857
5855 5858 5861 5862 5863 5865 5867 5869 5871 5873 5874 5874 5875 5875 5876 5877 5877 5878 5878 5879 5879 5879 5879 5880 5880 5879 5879 5878 5878 5876 5875 5874 5872 5871 5869 5867 5865 5863 5862 5860 5859 5857 5856 5855
5850 5854 5855 5856 5858 5860 5862 5865 5867 5868 5869 5869 5870 5871 5872 5873 5873 5874 5875 5875 5876 5876 5876 5876 5876 5876 5876 5876 5875 5873 5872 5870 5869 5868 5866 5865 5863 5861 5860 5858 5856 5855 5854 5853
5844 5847 5849 5850 5852 5855 5857 5860 5862 5863 5863 5864 5866 5866 5868 5868 5869 5870 5870 5871 5871 5872 5873 5873 5873 5873 5873 5873 5872 5870 5869 5867 5865 5864 5863 5862 5861 5859 5857 5856 5854 5853 5852 5851
5838 5841 5842 5845 5848 5850 5852 5854 5856 5857 5858 5859 5860 5861 5863 5864 5865 5866 5866 5867 5868 5869 5870 5870 5870 5870 5870 5869 5868 5867 5865 5864 5863 5861 5860 5859 5858 5857 5855 5853 5852 5851 5850 5849
5832 5835 5837 5840 5842 5844 5846 5849 5850 5851 5852 5854 5856 5856 5858 5860 5861 5861 5862 5862 5864 5865 5865 5866 5866 5866 5866 5865 5864 5863 5862 5861 5860 5858 5857 5856 5855 5853 5852 5851 5850 5849 5848 5847
5825 5828 5830 5833 5835 5838 5840 5842 5844 5845 5846 5848 5851 5850 5853 5854 5855 5856 5857 5858 5859 5860 5860 5861 5861 5861 5861 5861 5860 5859 5858 5857 5856 5855 5854 5853 5851 5850 5849 5848 5847 5846 5845 5844
5818 5822 5825 5827 5829 5832 5834 5836 5838 5840 5841 5843 5845 5844 5848 5849 5849 5850 5851 5852 5853 5855 5856 5856 5856 5856 5857 5856 5855 5855 5854 5853 5852 5851 5850 5849 5848 5847 5845 5845 5844 5843 5842 5842
5812 5816 5820 5822 5824 5826 5828 5830 5833 5834 5835 5837 5838 5840 5842 5843 5844 5845 5847 5847 5849 5850 5850 5851 5852 5852 5852 5852 5851 5850 5849 5848 5847 5846 5845 5844 5844 5843 5842 5841 5841 5840 5840 5839
5806 5810 5813 5816 5818 5820 5823 5825 5826 5827 5829 5830 5832 5834 5837 5839 5840 5841 5842 5843 5844 5845 5845 5846 5847 5847 5847 5847 5846 5845 5844 5843 5843 5842 5841 5840 5839 5838 5838 5838 5837 5837 5836 5835
5799 5803 5807 5809 5811 5813 5816 5818 5819 5821 5823 5825 5826 5831 5833 5834 5834 5836 5837 5838 5839 5840 5841 5841 5841 5841 5842 5842 5841 5840 5840 5839 5838 5838 5837 5836 5835 5834 5834 5834 5834 5833 5832 5832
5792 5795 5799 5802 5805 5807 5809 5811 5814 5816 5817 5819 5821 5826 5827 5828 5829 5830 5832 5833 5834 5835 5836 5836 5837 5836 5836 5836 5835 5835 5835 5834 5834 5833 5832 5831 5830 5829 5829 5829 5829 5829 5828 5828
5786 5789 5792 5795 5799 5801 5802 5805 5807 5809 5811 5813 5815 5820 5821 5822 5823 5825 5826 5828 5829 5830 5831 5831 5831 5830 5830 5830 5830 5830 5830 5829 5829 5828 5827 5826 5826 5825 5825 5825 5825 5825 5824 5824
5779 5782 5786 5789 5791 5793 5795 5798 5800 5803 5804 5807 5809 5813 5815 5816 5818 5819 5821 5823 5824 5824 5825 5825 5825 5825 5825 5825 5825 5825 5825 5824 5824 5823 5822 5822 5821 5820 5820 5820 5820 5820 5820 5820
5773 5775 5778 5782 5785 5787 5789 5792 5795 5796 5798 5801 5804 5806 5809 5810 5812 5814 5816 5817 5819 5819 5820 5820 5820 5820 5820 5820 5820 5820 5820 5820 5819 5818 5817 5817 5816 5815 5816 5816 5816 5816 5816 5816
5766 5769 5772 5775 5778 5781 5783 5786 5788 5790 5792 5794 5797 5800 5803 5804 5806 5808 5810 5812 5813 5814 5815 5815 5815 5815 5815 5815 5815 5815 5815 5814 5814 5813 5813 5812 5811 5811 5811 5811 5811 5811 5811 5811
5760 5763 5766 5769 5772 5774 5777 5779 5781 5784 5786 5788 5790 5795 5796 5798 5800 5802 5804 5806 5807 5809 5809 5810 5810 5809 5809 5810 5811 5811 5810 5810 5809 5808 5808 5807 5807 5806 5806 5806 5806 5806 5806 5806
5753 5756 5759 5762 5766 5767 5773 5773 5775 5777 5778 5781 5784 5787 5789 5791 5793 5795 5797 5799 5801 5802 5803 5803 5804 5804 5805 5805 5806 5806 5806 5805 5805 5804 5803 5803 5802 5802 5802 5802 5802 5802 5802 5802
5747 5750 5752 5755 5757 5761 5765 5766 5768 5770 5772 5774 5777 5780 5783 5784 5787 5789 5792 5793 5794 5794 5796 5796 5798 5798 5798 5800 5801 5801 5801 5801 5800 5800 5799 5799 5798 5798 5798 5798 5797 5797 5797 5797
5740 5743 5746 5748 5750 5754 5759 5760 5761 5764 5766 5768 5771 5774 5776 5779 5781 5784 5786 5787 5788 5788 5789 5790 5791 5793 5794 5795 5795 5796 5795 5795 5795 5795 5795 5795 5794 5793 5793 5793 5793 5793 5793 5793
5733 5736 5739 5742 5744 5747 5752 5753 5756 5758 5761 5763 5764 5767 5770 5772 5775 5777 5779 5781 5782 5783 5784 5785 5786 5787 5788 5789 5789 5790 5790 5790 5790 5790 5790 5790 5789 5789 5789 5789 5789 5789 5789 5789
5728 5731 5734 5736 5738 5743 5745 5748 5750 5751 5754 5756 5758 5761 5763 5766 5769 5770 5772 5773 5775 5776 5778 5780 5780 5781 5782 5783 5783 5784 5784 5784 5784 5785 5785 5785 5785 5784 5784 5784 5784 5784 5784 5784
5723 5726 5728 5732 5735 5737 5739 5741 5743 5746 5748 5750 5752 5755 5757 5759 5762 5763 5765 5767 5768 5770 5772 5773 5774 5775 5776 5777 5777 5778 5778 5778 5778 5779 5779 5779 5779 5779 5779 5779 5779 5779 5779 5778
5718 5721 5723 5726 5729 5732 5734 5736 5738 5740 5742 5743 5746 5748 5750 5753 5755 5757 5759 5760 5762 5764 5765 5767 5768 5769 5770 5771 5771 5771 5771 5772 5772 5772 5773 5773 5773 5773 5773 5773 5773 5773 5773 5773
5714 5716 5718 5721 5724 5726 5728 5730 5732 5734 5736 5738 5739 5741 5743 5746 5748 5751 5753 5755 5756 5758 5759 5760 5762 5763 5763 5764 5764 5765 5765 5765 5765 5766 5766 5767 5767 5767 5767 5767 5767 5767 5767 5767
5709 5712 5714 5716 5719 5721 5723 5725 5726 5728 5730 5732 5733 5735 5737 5739 5742 5744 5746 5748 5749 5751 5752 5753 5754 5755 5756 5757 5757 5757 5758 5758 5758 5759 5759 5760 5760 5761 5761 5761 5761 5761 5761 5760